Location: Caltech
(34.1382°N, 118.1253°W)
Time: 13:24:58
(UTC-07:00)

Iridium 91 - Visible Passes

Search period start: 26 May 2016 00:00
Search period end: 05 June 2016 00:00
Orbit: 776 x 779 km, 86.4° (Epoch: 26 May)

Date Brightness Start Highest point End Pass type
(mag) Time Alt. Az. Time Alt. Az. Time Alt. Az.
26 May 6.0 02:14:32 10° N 02:18:39 56° N 02:18:39 56° N visible
27 May 6.7 01:41:15 10° NNE 01:45:05 37° NE 01:45:05 37° NE visible
27 May 7.4 03:23:08 10° NW 03:25:32 17° WNW 03:25:32 17° WNW visible
28 May 7.5 01:08:29 10° NNE 01:11:32 21° ENE 01:11:32 21° ENE visible
28 May 6.7 02:48:34 10° NNW 02:51:59 30° WNW 02:51:59 30° WNW visible
29 May 8.1 00:37:09 10° ENE 00:37:59 11° ENE 00:37:59 11° ENE visible
29 May 6.3 02:14:39 10° N 02:18:27 47° NNW 02:18:27 47° NNW visible
30 May 6.4 01:41:08 10° N 01:44:55 46° NNE 01:44:55 46° NNE visible
30 May 7.8 03:24:43 10° WNW 03:25:22 11° WNW 03:25:22 11° WNW visible
31 May 7.1 01:08:02 10° NNE 01:11:23 29° NE 01:11:23 29° NE visible
31 May 7.2 02:49:09 10° NNW 02:51:51 21° WNW 02:51:51 21° WNW visible
01 Jun 7.7 00:35:35 10° NE 00:37:51 16° ENE 00:37:51 16° ENE visible
01 Jun 6.7 02:14:55 10° NNW 02:18:19 34° NW 02:18:19 34° NW visible
02 Jun 6.4 01:41:09 10° N 01:44:48 46° N 01:44:48 46° N visible
03 Jun 6.8 01:07:47 10° N 01:11:18 37° NE 01:11:18 37° NE visible
03 Jun 7.6 02:50:07 10° NW 02:51:46 14° WNW 02:51:46 14° WNW visible
04 Jun 7.4 00:34:53 10° NNE 00:37:48 23° ENE 00:37:48 23° ENE visible
04 Jun 7.1 02:15:21 10° NNW 02:18:15 25° NW 02:18:15 25° NW visible
